Wind_Speed
12 12 12 12 13 13 13 13 13 13 13 13 14 14 14 14 14 15 15 15 16 17 18 19 20 21 22 22 23 24 24 26 27 30 34 36 41 45 47 48 48 47 46 44 42 41 41 40 43 45 46 48 50 50 50 51 48 47 45 42 40 39 38 35 31 29 28 26 22 19 23 27 21 20 27 28 27 25 26 26 22 20 18 16 16 16 13 13
14 14 14 14 14 13 13 13 13 13 13 14 14 14 15 15 15 16 16 17 17 18 18 19 20 21 21 22 23 24 24 25 25 28 31 31 35 39 41 45 47 47 46 45 43 41 40 40 40 41 42 44 47 48 50 51 49 50 47 43 45 42 37 34 32 30 27 27 26 22 23 28 23 19 24 26 22 24 26 25 24 21 19 18 17 17 13 13
16 15 15 15 15 15 15 15 15 15 15 16 16 16 15 15 15 16 16 17 17 18 19 20 20 21 21 21 22 24 24 25 26 28 28 28 30 34 37 40 44 45 46 45 44 43 41 40 40 39 38 39 43 45 47 49 50 51 47 42 45 42 37 32 32 31 28 27 28 26 25 26 26 21 22 25 21 22 23 22 24 22 20 19 18 17 13 14
16 16 16 16 16 16 17 16 16 16 17 16 15 14 14 14 15 16 16 17 18 19 20 20 21 22 22 22 21 22 24 26 29 29 27 27 27 29 33 36 38 40 43 44 45 45 43 42 41 39 38 38 40 42 45 48 50 51 49 46 40 34 35 34 32 30 28 29 30 29 26 26 27 24 23 25 23 24 23 23 24 20 19 20 18 15 13 15
16 16 16 16 17 17 17 17 17 17 16 14 12 12 13 14 15 16 17 18 19 20 21 22 23 24 24 24 24 24 24 23 27 30 27 26 26 27 28 31 33 35 39 42 44 45 44 43 41 39 39 39 39 41 44 45 47 47 48 52 41 29 30 31 29 30 32 34 36 34 30 29 27 27 28 27 26 24 20 20 22 20 19 21 18 14 14 17
16 16 17 17 18 19 19 19 19 17 14 12 12 13 14 16 17 19 20 21 22 22 24 25 26 27 27 27 26 26 25 21 25 32 31 29 29 28 27 27 28 32 36 39 42 44 44 43 42 42 42 41 39 42 44 42 45 45 44 51 48 37 30 26 28 35 40 41 42 40 34 31 29 31 32 31 29 24 21 23 23 24 23 21 18 15 15 18
16 17 18 19 20 19 20 20 18 13 11 12 13 14 15 17 18 20 22 23 25 26 28 29 29 30 30 30 29 28 27 25 27 33 33 32 32 31 29 27 26 28 32 36 40 42 43 44 44 43 42 42 41 42 41 39 44 45 41 42 44 44 39 33 33 39 45 44 43 41 35 35 36 32 29 32 32 26 28 31 29 28 25 22 18 16 17 20
17 18 18 19 20 20 20 18 14 11 11 12 14 15 17 18 19 20 21 23 24 26 28 31 33 34 33 32 32 31 30 27 28 32 33 32 32 32 30 28 26 26 30 35 38 40 42 43 44 43 42 43 42 40 38 37 41 46 42 33 32 41 44 42 39 39 45 45 42 41 42 43 40 30 28 35 34 30 35 34 30 29 26 23 19 17 20 22
17 18 19 20 20 20 20 15 12 11 12 14 15 17 19 20 21 22 23 24 25 26 27 29 31 33 34 34 34 34 32 28 30 34 32 31 32 33 31 29 27 26 29 33 36 40 42 43 43 42 41 39 38 39 39 39 38 41 44 35 29 37 41 41 40 40 44 45 43 46 47 43 37 34 37 39 32 33 39 34 31 30 26 23 19 20 22 23
18 19 19 20 20 21 19 15 13 13 14 15 17 19 21 22 23 24 25 26 27 28 28 29 29 30 32 33 35 37 34 29 32 36 33 31 31 31 31 29 27 26 29 32 34 38 40 42 41 40 41 38 36 39 42 42 34 32 39 36 33 37 39 39 37 38 40 41 43 45 43 38 38 44 43 33 31 38 39 35 33 30 26 23 20 23 24 25
20 20 21 21 21 22 20 17 15 15 16 16 18 21 22 23 24 25 27 28 28 29 29 29 30 30 31 31 34 36 32 29 33 35 33 31 31 30 30 28 26 26 28 31 32 36 40 42 44 44 43 40 38 40 42 44 35 30 34 34 36 38 36 38 36 32 32 34 41 43 36 34 37 46 42 26 29 41 37 34 35 29 27 23 21 25 25 26
20 21 22 22 22 23 21 19 18 18 18 18 20 22 23 24 25 25 26 27 28 29 29 29 30 31 31 33 34 32 30 30 33 34 32 31 31 32 31 28 27 26 28 31 31 34 40 42 45 44 39 38 36 33 39 46 40 33 35 31 31 35 31 34 36 34 32 31 37 37 32 36 38 41 45 32 30 40 36 33 33 29 26 22 23 25 26 28
21 22 22 23 23 23 23 21 20 20 20 21 22 23 24 24 25 26 26 27 27 28 28 29 31 31 33 36 35 32 30 31 32 34 32 29 30 33 33 30 28 27 28 31 30 32 37 40 43 42 39 35 27 28 35 43 42 36 36 29 23 28 31 33 35 34 35 33 34 33 32 39 38 39 46 40 37 41 36 33 31 28 25 23 25 25 26 30
21 22 23 23 24 24 24 23 22 22 22 23 23 24 25 25 26 26 26 27 27 28 28 28 30 31 35 39 36 33 30 30 30 32 30 27 30 32 32 30 28 28 28 29 30 30 34 38 40 40 43 36 26 31 32 32 40 35 31 30 24 25 29 32 35 34 34 35 35 34 35 37 31 32 40 41 42 41 35 33 31 28 26 25 25 25 28 31
22 22 23 23 24 25 24 24 24 24 24 24 24 25 26 27 27 26 27 27 27 28 27 29 30 31 36 39 35 32 30 29 27 28 29 28 30 32 33 31 27 27 27 28 30 29 31 34 37 38 42 40 33 32 26 22 31 31 28 30 28 25 22 26 35 37 34 32 36 37 33 32 28 24 29 36 40 39 35 32 31 28 27 27 26 27 30 32
23 23 23 24 25 25 25 25 25 25 25 25 25 26 27 28 28 27 27 28 27 27 27 29 30 30 34 35 33 32 31 28 24 25 28 27 28 32 36 35 29 27 27 28 29 28 28 30 34 35 34 36 36 29 22 21 24 29 32 29 28 29 21 20 30 37 35 30 34 39 29 24 26 23 24 32 36 35 35 33 31 29 28 29 29 31 33 33
23 23 24 24 25 26 26 25 25 26 25 25 25 26 26 27 27 28 28 28 27 25 27 30 30 30 32 30 29 29 29 27 22 23 27 27 26 29 35 36 32 28 27 29 29 27 27 29 31 32 30 31 33 27 24 27 27 29 33 29 26 30 26 19 24 31 35 32 30 35 31 21 19 21 25 32 35 33 34 34 32 30 30 32 32 33 33 32
23 24 24 25 26 26 26 25 25 25 24 24 25 25 25 26 27 29 30 28 26 25 27 29 28 27 24 26 31 30 30 28 22 22 23 22 23 26 31 32 30 28 28 30 31 28 24 26 28 28 29 31 31 33 32 31 31 31 31 30 25 27 29 22 21 27 34 35 29 29 34 29 19 18 24 32 36 33 33 34 32 31 34 34 34 33 31 29
24 25 26 26 26 27 27 26 26 25 25 24 24 24 25 27 28 30 31 29 26 26 27 28 31 29 22 26 34 33 32 27 21 21 20 19 20 22 26 29 28 27 29 30 31 29 22 22 27 29 33 37 36 38 36 24 23 27 28 30 25 23 29 25 19 24 32 36 35 31 32 34 28 21 22 30 35 34 33 34 33 34 37 37 36 34 29 27
25 26 26 27 27 28 27 27 26 26 25 24 24 24 24 26 28 30 34 35 30 27 26 26 30 33 30 29 29 30 30 24 20 21 19 20 21 20 22 25 24 24 28 29 28 27 23 23 32 34 34 37 35 35 31 17 15 22 25 28 26 22 26 27 20 21 30 33 35 36 31 33 35 27 23 28 32 33 34 34 34 36 40 40 38 35 31 28
26 26 27 27 28 29 28 27 27 26 25 24 24 24 24 25 26 29 36 40 34 29 29 27 26 31 31 27 24 25 26 22 20 20 20 22 22 20 21 22 21 23 28 29 25 24 24 28 34 33 29 29 30 32 28 17 13 19 23 26 26 23 22 25 24 21 26 29 28 32 32 31 34 30 25 27 31 33 34 35 35 36 41 42 38 34 32 32
27 27 28 28 30 30 29 27 27 27 25 23 23 23 23 24 26 29 34 41 38 31 29 27 25 25 22 21 21 22 24 22 20 21 22 23 22 21 18 19 22 23 26 28 26 25 28 32 32 28 25 24 26 32 29 17 14 19 22 25 25 24 21 21 25 22 23 27 23 25 31 31 31 31 27 27 31 31 32 36 36 35 40 43 39 34 34 35
28 29 30 30 31 30 28 26 27 26 24 22 21 22 23 24 26 29 33 40 41 32 26 23 18 15 14 15 18 20 21 19 18 19 22 24 25 22 18 19 22 22 24 29 30 29 30 30 28 26 24 23 25 31 32 21 16 19 21 25 24 24 24 20 24 24 21 24 21 20 26 28 27 31 29 27 30 30 30 34 35 34 38 42 41 37 36 36
29 31 32 33 32 29 27 25 24 24 22 21 20 21 23 24 27 30 33 39 40 31 20 14 10 10 13 15 15 16 15 14 15 17 21 26 25 23 20 19 20 22 24 30 32 30 28 22 23 26 24 25 25 27 33 27 20 19 20 23 23 24 25 20 21 24 21 21 20 18 21 25 27 30 30 29 30 31 30 32 33 31 34 39 42 40 36 34
31 32 33 33 31 28 26 24 22 21 20 19 20 21 22 25 28 29 32 34 34 25 11 7 9 13 16 13 12 12 11 13 14 15 20 26 25 22 21 19 20 23 24 29 32 30 25 19 21 26 24 25 26 26 32 31 24 22 21 21 20 23 25 19 19 24 22 22 24 22 17 19 26 29 30 30 31 33 33 35 35 32 34 39 41 40 36 33
32 33 32 31 30 28 24 21 20 18 17 17 19 21 23 26 26 28 29 24 19 13 8 9 12 13 14 11 9 9 8 9 10 14 18 23 24 21 18 20 22 22 23 26 28 28 25 20 20 25 25 24 25 26 30 31 26 21 23 22 17 20 25 21 20 25 23 21 25 27 19 14 22 28 30 30 32 36 37 37 39 37 38 41 41 40 37 35
33 32 30 29 28 27 23 19 17 16 16 16 18 20 22 24 25 26 22 12 8 7 11 14 13 12 12 12 8 4 4 5 5 12 18 20 23 23 19 20 22 19 20 23 25 25 24 22 22 24 25 25 25 25 28 33 28 18 20 25 19 17 23 22 21 22 21 17 20 29 26 16 18 26 30 31 32 37 40 39 40 41 39 40 41 41 39 37
32 31 28 26 25 24 21 18 15 14 15 16 18 20 22 23 24 21 13 5 5 11 16 15 13 14 13 12 9 6 7 6 2 7 16 18 19 24 22 19 19 17 19 22 23 22 22 22 24 25 25 26 25 23 25 32 28 15 15 25 23 19 19 20 21 21 19 17 18 28 29 19 16 20 27 33 34 36 40 41 41 41 40 39 41 42 40 38
32 29 26 24 21 19 18 16 15 14 13 15 18 20 22 23 22 16 4 3 7 15 18 16 15 16 12 11 9 9 10 9 4 5 16 19 18 22 21 18 17 15 18 22 21 20 21 21 22 24 25 25 24 20 21 32 29 16 14 22 23 19 18 18 19 21 20 17 18 26 31 21 13 17 26 32 37 37 37 40 41 40 40 40 40 41 41 40
31 27 24 21 17 15 15 15 15 14 13 15 18 21 23 22 18 8 4 5 14 17 17 17 18 16 12 9 9 9 12 12 5 6 16 19 19 20 18 16 16 15 17 21 18 14 17 20 20 23 23 21 23 20 20 30 28 17 16 21 20 18 17 17 18 21 17 15 19 25 32 26 13 16 26 29 34 36 34 40 43 40 40 41 40 40 41 41
30 25 22 19 15 15 15 14 15 14 14 17 19 21 23 19 11 3 4 12 18 16 16 21 21 16 9 7 9 9 10 13 8 9 16 19 20 20 16 15 17 16 17 21 19 11 14 21 21 22 22 19 22 21 20 27 29 20 19 23 20 18 17 15 16 18 13 11 20 25 29 29 19 15 21 25 30 35 37 41 43 42 42 41 41 40 41 41
28 23 19 16 15 15 15 15 15 15 17 19 19 21 19 12 5 5 8 16 14 13 20 24 22 13 7 6 8 8 8 12 11 11 17 20 21 22 19 18 21 18 15 22 22 13 14 22 22 20 21 20 23 24 21 26 31 24 22 26 21 15 14 13 13 14 11 9 17 25 26 26 25 20 15 18 27 35 39 40 41 41 42 41 42 43 42 40
27 22 18 16 15 15 15 15 15 15 18 19 19 20 14 5 5 7 13 15 11 17 23 23 18 10 6 6 7 8 9 12 11 11 16 19 20 21 20 18 21 17 14 21 23 15 14 20 23 22 22 23 24 27 27 30 36 31 28 30 21 12 10 11 11 10 11 9 11 22 23 18 23 25 18 15 21 31 37 38 39 40 42 42 43 44 42 40
26 22 18 17 17 16 16 15 16 16 17 19 19 17 10 5 7 13 17 16 16 20 22 20 15 7 5 6 5 7 9 11 12 11 15 19 19 21 19 18 20 14 13 21 22 18 15 16 24 26 24 25 26 27 27 29 35 33 28 26 22 14 10 10 10 10 12 10 12 19 18 13 16 18 20 19 16 23 32 34 36 38 39 42 44 43 42 41
26 21 19 19 18 17 16 16 17 17 17 20 18 12 8 7 10 17 20 20 20 21 19 16 11 5 4 5 4 6 9 11 12 12 14 18 18 19 19 19 21 15 14 21 20 19 17 14 23 25 21 25 28 26 24 24 29 30 24 22 21 17 12 8 4 8 14 11 12 18 14 12 13 9 15 20 17 20 26 29 36 39 41 43 44 43 42 41
27 23 20 20 18 17 17 17 17 16 17 19 15 9 9 10 14 19 22 19 17 19 18 12 7 5 4 3 4 7 9 9 13 13 13 16 16 16 18 18 20 17 16 21 20 20 17 12 22 25 18 23 27 25 25 24 25 28 26 25 21 14 11 9 4 6 13 9 9 18 15 11 11 8 14 20 19 22 26 29 37 42 44 45 44 43 42 40
28 24 21 19 18 18 18 18 17 16 18 18 14 11 11 15 19 20 20 17 14 16 16 10 7 6 3 2 3 9 9 8 13 12 12 14 14 16 18 16 18 19 16 17 18 19 16 13 22 26 19 22 26 23 25 23 22 27 27 23 20 11 8 12 9 7 10 8 8 18 19 15 12 10 15 21 22 26 28 29 34 38 42 43 43 43 41 38
28 25 21 18 18 19 19 17 15 15 17 16 14 13 13 17 19 19 20 18 14 14 12 8 7 6 3 1 4 10 10 10 14 13 11 13 12 15 19 15 17 19 16 14 14 17 17 13 19 26 21 21 24 23 25 25 22 24 23 20 19 14 10 12 10 8 10 8 6 14 18 17 15 13 18 22 25 28 29 29 31 34 37 38 39 40 40 39
28 25 22 19 18 19 18 15 14 16 16 13 13 13 14 19 20 18 18 17 13 12 9 7 6 4 2 2 4 9 10 10 14 13 11 12 11 14 19 16 17 20 17 14 12 16 17 10 16 25 22 21 26 26 27 28 24 20 18 20 20 15 12 13 10 9 12 8 5 10 13 15 17 14 16 22 25 26 29 31 31 32 34 35 37 38 38 38
27 24 20 19 18 18 17 14 15 17 14 11 13 15 16 20 21 16 15 17 14 10 8 6 4 2 0 1 3 8 9 8 12 12 11 12 11 13 18 18 18 20 19 14 11 15 16 10 16 25 23 23 27 28 27 28 27 22 18 21 24 16 11 13 10 9 11 8 5 7 8 12 18 15 12 18 23 26 29 32 32 30 30 32 34 34 34 33
25 21 19 19 19 19 18 16 16 17 15 12 15 17 17 19 20 16 14 17 17 13 9 5 2 2 2 3 3 7 9 9 11 12 11 13 13 14 19 20 19 20 20 16 14 15 13 10 18 26 25 25 26 24 24 24 26 24 19 21 25 19 12 10 9 9 10 8 7 7 5 9 18 18 14 15 17 21 26 30 31 31 30 30 30 29 28 28
25 22 20 19 20 22 20 16 13 15 17 15 16 19 18 18 18 16 13 15 19 18 13 5 1 2 2 2 3 6 8 8 11 12 11 13 13 13 19 22 19 19 20 16 15 17 12 9 19 25 23 22 20 19 21 22 22 23 20 19 22 21 16 10 8 11 11 5 4 7 5 7 13 16 18 19 18 18 20 25 29 31 31 30 28 26 25 25
25 23 22 20 22 24 21 17 15 17 19 16 16 20 18 17 18 15 12 13 17 19 16 10 2 2 2 1 3 6 7 7 11 13 11 11 11 13 20 23 19 19 19 14 14 19 13 9 19 22 18 19 18 17 19 20 21 23 23 22 22 23 21 12 7 10 12 8 6 6 4 6 10 11 15 22 25 24 20 20 26 30 30 30 29 25 24 24
25 24 24 20 22 26 23 20 22 24 23 18 18 22 20 16 17 15 12 12 15 18 17 13 5 1 2 3 7 7 7 8 10 12 10 8 9 14 21 24 20 19 19 12 13 18 11 8 19 20 14 16 15 14 19 23 25 27 25 23 22 23 24 17 8 7 9 9 8 6 5 6 10 14 16 19 24 27 24 20 22 24 25 28 28 25 23 24
26 26 25 20 21 26 24 21 24 26 25 22 21 24 24 17 13 14 14 11 11 15 15 14 8 2 1 4 9 8 7 6 6 9 10 9 12 16 23 25 20 17 16 10 12 16 9 8 18 18 13 13 13 16 24 30 29 27 25 24 22 24 27 21 12 9 7 7 6 6 7 10 6 11 16 18 21 26 27 24 21 20 21 25 26 24 23 24
26 26 26 21 19 23 24 23 24 25 25 25 25 27 28 23 15 12 14 12 10 11 12 12 10 5 1 3 7 6 5 3 4 6 9 12 14 18 23 25 19 14 13 13 15 15 10 10 17 19 17 15 15 19 24 27 27 26 26 26 23 24 27 23 15 11 8 8 9 7 3 8 6 4 7 12 18 24 27 26 23 20 20 23 26 24 23 24
26 26 27 23 18 21 24 22 22 24 25 25 26 28 29 29 21 13 12 14 13 11 10 9 10 8 2 3 3 3 3 4 5 4 7 12 15 18 23 24 18 14 15 17 15 11 9 11 14 16 17 15 13 15 19 22 24 23 24 25 24 23 26 26 20 12 8 9 9 6 2 3 4 3 1 4 11 20 24 24 24 21 20 23 26 25 24 24
24 24 27 25 20 21 24 23 21 24 27 26 26 28 27 29 26 16 12 15 14 12 11 10 12 12 6 2 1 1 3 6 6 3 6 12 16 20 23 21 17 17 17 13 10 6 6 10 12 12 14 14 13 14 18 21 21 20 20 22 24 24 25 28 25 16 11 10 5 5 2 3 7 5 4 2 5 16 21 22 22 21 20 23 26 26 25 23
22 23 26 25 21 20 24 25 24 25 28 27 26 26 26 29 27 17 12 15 15 11 11 13 13 12 7 5 4 2 4 4 6 6 8 13 18 22 23 18 17 19 14 7 8 7 5 7 9 11 14 14 13 14 19 22 21 20 20 20 22 23 23 26 26 20 17 13 5 3 3 4 8 8 4 3 2 11 17 20 20 20 21 24 26 25 24 22
21 23 25 25 21 20 23 25 25 24 25 25 25 25 26 28 26 18 12 15 16 14 14 13 12 9 5 5 5 3 5 6 7 10 13 17 20 21 21 21 22 20 13 8 8 7 7 6 5 8 13 16 14 14 18 22 23 21 21 20 21 22 21 23 25 23 20 18 11 7 7 5 6 10 7 2 1 6 13 17 19 20 21 23 24 24 24 22
21 23 25 25 23 21 21 23 24 22 21 24 26 27 27 26 25 21 18 16 15 16 17 17 16 14 9 6 4 4 8 8 8 12 17 22 23 23 24 25 26 20 13 11 9 7 8 6 3 5 11 16 17 15 16 20 21 21 23 24 24 23 23 26 30 27 22 20 15 10 7 6 3 10 10 3 0 2 8 14 17 19 21 22 23 23 23 22
20 21 23 25 24 22 20 21 22 20 20 24 26 25 25 25 24 23 23 21 17 15 17 19 20 18 14 8 3 6 9 10 11 12 17 23 26 25 25 24 22 17 12 10 9 9 9 8 6 8 11 16 19 18 17 18 16 17 25 28 27 25 23 25 32 32 26 21 16 10 8 8 3 10 13 6 0 2 4 10 15 18 20 21 21 21 21 22
Wind_Direction
352 348 346 343 341 338 337 334 331 330 327 325 324 322 320 316 313 309 306 302 299 297 295 293 291 290 288 287 286 282 281 277 273 269 264 258 255 253 251 248 246 246 245 243 242 242 242 241 240 238 237 238 238 238 239 240 240 239 236 235 236 236 237 236 236 238 237 234 233 236 247 254 248 251 260 261 264 263 265 270 268 268 269 271 277 279 275 264
343 341 340 339 337 336 334 331 329 326 324 324 323 321 319 316 313 311 309 308 306 305 303 302 299 297 295 295 293 290 287 284 281 275 269 264 260 258 254 249 246 244 244 243 241 240 240 239 239 237 236 236 236 235 237 238 237 237 235 234 236 237 238 238 237 239 234 229 234 243 253 258 249 243 256 258 259 263 264 267 268 266 269 275 277 280 272 256
339 339 339 338 337 335 332 330 327 326 326 325 324 322 320 318 316 314 314 315 314 314 313 311 309 306 304 301 299 296 292 290 286 280 277 272 265 261 257 252 247 243 242 241 239 238 237 236 236 235 234 234 235 233 234 235 234 236 233 233 238 240 239 239 238 234 229 231 238 245 251 257 252 242 245 250 251 256 258 259 265 268 271 276 279 281 269 249
338 339 338 337 335 331 328 326 325 325 325 324 324 323 322 322 320 319 319 320 320 319 317 315 313 311 310 309 307 303 301 298 289 283 282 279 272 266 261 254 249 244 241 239 237 237 235 234 234 233 232 231 233 232 231 232 232 233 232 233 237 239 239 239 234 225 225 236 241 246 249 252 253 244 236 246 251 248 252 255 257 262 268 275 278 277 260 241
338 337 334 330 326 323 320 319 320 321 321 322 323 322 322 321 319 319 319 318 318 316 315 313 312 310 310 311 309 310 312 305 295 290 286 282 277 271 265 258 251 245 240 237 235 234 233 233 232 230 229 228 229 230 230 230 231 231 232 235 234 235 236 231 224 221 231 243 246 247 246 249 251 246 241 244 246 245 252 252 250 255 264 271 273 266 246 235
335 332 327 322 320 319 318 317 317 318 320 322 321 320 320 319 319 318 317 316 315 314 312 310 309 308 308 308 307 309 310 305 301 296 289 283 278 274 270 264 254 245 239 235 233 232 231 230 229 228 228 228 227 229 231 230 231 230 232 236 234 232 229 222 223 231 241 246 249 249 246 248 247 248 251 247 244 246 247 244 250 262 267 271 271 257 238 233
331 327 323 319 318 318 316 314 314 315 317 316 316 316 314 316 316 315 314 314 314 314 313 311 308 306 305 305 304 305 305 307 306 299 292 284 277 274 273 268 259 246 238 233 230 228 227 227 227 227 227 228 228 230 231 230 233 232 231 236 235 232 228 226 231 239 245 246 249 250 245 245 247 249 250 249 250 246 246 251 258 265 267 268 265 246 232 231
327 324 320 317 316 315 313 310 307 306 307 307 308 309 309 310 310 311 312 312 313 313 312 310 307 304 303 301 301 301 303 310 310 302 295 284 274 270 269 266 260 248 238 232 227 224 223 223 223 224 225 227 228 229 228 227 232 234 230 231 232 233 232 232 235 238 245 246 246 246 246 248 251 246 241 251 256 248 251 259 261 263 265 265 257 235 226 225
322 319 316 314 314 314 312 304 297 297 298 302 304 306 307 309 311 313 314 315 314 312 310 306 303 301 300 299 300 300 302 310 311 304 296 281 269 265 263 261 259 250 239 231 225 222 220 221 220 220 222 223 225 226 226 226 229 235 232 226 227 233 234 234 234 237 243 245 243 245 247 249 247 242 244 253 252 247 257 260 260 263 263 262 248 226 221 217
318 315 313 313 313 313 310 296 290 292 293 300 303 304 307 309 313 315 317 317 315 313 311 307 302 298 296 297 297 299 303 309 306 301 295 280 264 260 259 256 254 250 240 231 224 219 217 217 215 214 216 217 219 222 226 227 227 232 231 225 228 235 236 235 233 236 240 240 240 243 244 243 243 246 248 248 241 247 259 259 259 262 258 257 238 221 216 210
316 314 313 313 313 313 308 293 287 288 289 296 300 303 306 309 311 313 315 316 314 313 311 309 305 301 298 295 293 297 303 304 298 295 292 278 260 252 252 250 249 247 240 232 224 218 215 214 212 211 213 214 217 221 224 226 224 227 228 224 229 235 237 235 230 227 229 232 237 239 239 237 240 246 244 234 240 251 255 255 257 256 252 247 226 219 214 207
316 314 313 313 313 313 309 294 286 286 288 292 297 301 305 308 309 310 311 313 312 310 310 310 307 306 302 297 296 299 301 297 295 293 290 277 260 249 246 245 244 244 241 233 225 218 214 214 214 211 211 213 215 218 222 224 221 223 225 223 228 230 230 231 228 224 221 224 234 234 233 234 234 239 242 234 240 251 249 250 253 248 245 233 216 216 211 204
318 317 315 315 314 314 311 299 289 288 289 291 295 299 303 306 306 307 309 310 310 308 308 309 308 308 303 301 303 302 299 296 294 293 288 275 260 249 244 242 239 239 239 233 228 220 214 214 213 210 209 208 206 214 220 222 220 220 223 220 219 223 223 224 225 225 222 222 228 226 229 235 232 236 245 239 237 246 247 244 246 243 237 220 210 213 206 202
321 321 320 319 318 317 314 306 296 292 292 293 295 299 301 303 303 306 308 309 310 307 307 307 306 306 303 304 305 303 302 299 295 293 286 269 256 246 240 237 233 232 234 232 231 223 216 214 212 209 209 202 198 214 216 218 220 217 218 219 213 215 221 221 221 221 220 222 223 222 230 236 232 235 243 242 239 242 243 241 240 238 227 211 207 209 204 203
324 324 323 322 321 320 317 311 303 297 295 296 298 299 300 301 302 306 308 309 309 307 306 304 303 305 303 303 306 305 304 301 297 292 283 267 253 242 234 230 224 226 228 228 230 225 217 215 212 210 210 204 201 209 207 208 215 208 207 214 212 215 221 215 218 220 216 218 220 219 228 235 231 230 232 238 241 238 238 237 235 231 217 206 204 205 204 203
325 325 324 323 323 322 321 316 308 301 298 299 300 301 301 302 303 306 307 309 309 308 306 302 302 304 301 303 307 305 303 302 300 287 275 265 251 237 233 231 225 226 226 223 227 226 218 215 212 209 209 209 206 202 196 199 205 204 207 211 209 209 211 202 211 221 216 212 219 218 222 231 231 224 218 233 241 234 232 232 230 223 208 202 201 202 202 198
324 323 323 324 325 324 324 319 311 305 301 302 302 303 304 303 305 306 307 309 309 309 304 301 303 302 301 304 304 301 300 302 298 283 271 263 249 232 231 233 229 227 223 220 222 223 218 213 209 206 204 207 206 198 196 202 199 200 206 210 209 205 205 200 199 212 213 208 215 217 218 225 224 214 215 233 238 229 227 227 225 216 201 200 199 197 195 192
322 321 321 323 325 325 325 320 312 308 306 306 305 306 307 306 307 307 307 310 310 310 305 302 302 301 305 305 299 296 296 296 291 278 266 257 246 229 228 230 224 221 218 216 217 217 214 210 206 204 204 203 201 198 200 204 201 198 198 202 208 203 203 203 188 199 208 207 211 213 216 219 215 206 215 234 236 227 224 223 222 210 198 197 194 190 190 192
322 320 321 323 325 325 325 321 315 313 310 308 307 309 310 308 309 307 307 309 311 312 306 301 299 295 294 293 293 292 289 290 284 268 253 243 238 228 227 225 216 213 212 210 212 212 203 200 203 203 205 202 199 200 202 207 207 202 198 198 203 198 200 201 189 205 214 208 209 212 213 216 215 211 216 231 234 229 224 221 218 206 196 194 190 191 195 197
320 319 320 322 324 324 324 320 317 315 312 310 309 311 312 314 317 315 312 310 311 310 302 297 294 291 289 287 286 284 282 285 278 261 241 232 231 223 222 220 211 208 206 202 205 207 197 198 204 206 206 203 201 200 201 212 212 203 199 196 199 194 196 198 191 210 217 208 210 212 214 217 217 216 217 226 229 227 222 218 216 207 198 195 193 195 198 196
320 319 320 321 323 323 323 320 316 315 314 312 312 314 316 319 321 316 312 309 309 311 305 298 290 285 288 288 279 274 275 279 271 253 232 227 225 219 219 213 205 206 204 198 199 200 198 206 209 208 205 202 203 199 199 212 207 197 194 190 195 196 196 199 196 204 208 206 212 212 214 220 218 216 217 221 224 223 219 215 214 208 202 199 197 197 196 196
322 320 320 321 322 322 322 319 315 313 314 313 313 315 316 317 317 314 312 308 307 313 310 301 291 285 286 284 274 269 272 274 266 247 228 222 218 214 217 209 203 207 203 196 194 193 201 212 211 206 203 200 203 199 198 204 196 192 192 189 196 198 196 198 200 201 200 203 211 209 213 221 220 216 215 217 220 221 218 215 214 209 205 204 201 199 197 198
324 322 321 322 322 322 321 318 314 313 314 314 314 315 314 315 315 315 314 308 309 319 314 299 292 293 291 283 274 273 277 274 262 245 228 219 214 207 207 208 206 206 202 196 194 193 202 213 207 200 201 197 197 198 197 198 193 193 193 195 199 195 191 192 195 197 196 201 208 208 212 220 220 217 215 215 218 219 217 214 213 210 206 206 205 202 200 201
326 324 323 323 323 323 321 318 315 313 314 316 315 316 314 316 317 317 316 311 315 325 322 300 296 303 300 292 282 278 276 263 249 238 224 215 212 207 207 209 206 205 203 198 197 199 204 207 199 196 199 196 193 194 197 199 203 204 200 199 199 193 192 193 190 190 194 202 207 203 208 219 218 213 211 212 214 215 213 209 208 208 206 205 206 205 202 202
328 326 325 325 324 324 322 320 317 314 317 319 317 317 317 320 320 319 319 316 318 325 325 311 312 307 303 296 286 280 269 256 245 231 222 214 208 208 212 212 207 204 202 198 200 206 207 200 193 195 197 197 198 198 199 200 203 207 206 202 199 194 192 193 186 183 190 203 203 197 202 216 213 209 206 205 209 209 207 206 204 205 205 205 206 205 202 202
329 328 328 327 325 324 324 323 320 317 320 320 319 321 323 324 321 321 323 315 311 321 324 316 314 310 306 296 289 292 281 269 249 225 219 213 205 202 209 214 209 203 201 200 202 208 208 200 193 194 194 195 198 200 199 196 198 206 205 198 193 191 192 193 187 184 193 203 200 200 210 215 205 207 207 204 209 209 206 206 204 203 204 205 206 204 203 205
331 330 329 328 326 324 325 327 324 321 323 322 324 326 326 325 322 324 329 308 279 313 320 310 307 307 304 293 285 283 258 258 246 222 213 208 205 200 204 213 207 201 199 198 202 207 204 196 191 190 190 193 194 196 195 191 195 205 199 192 189 185 190 192 190 192 200 202 198 202 213 224 212 207 206 203 207 208 207 206 203 203 204 204 205 204 204 206
334 333 331 330 327 323 325 329 326 325 326 325 329 330 327 328 327 328 330 293 281 319 318 309 307 309 303 290 272 232 218 217 215 222 206 200 202 200 204 208 203 200 194 194 199 199 194 189 186 186 189 194 194 192 190 188 193 199 186 188 191 191 194 195 196 201 203 202 201 199 205 222 228 209 200 200 204 206 207 207 204 204 204 204 204 204 205 207
337 336 334 332 329 325 326 328 327 330 329 329 332 330 329 334 335 331 301 241 310 323 319 312 311 314 307 290 267 230 217 211 206 203 192 191 196 198 203 203 199 198 191 194 195 186 189 191 186 188 192 194 193 189 186 186 189 191 173 177 188 194 199 199 201 204 202 206 209 198 197 210 229 205 191 195 203 204 204 206 206 205 204 204 204 203 204 207
341 339 336 335 332 328 329 328 330 333 330 333 333 328 331 337 337 327 215 275 317 321 323 320 315 314 308 286 263 239 214 206 214 186 177 183 194 197 199 194 192 194 191 196 198 181 183 192 189 192 194 192 189 186 185 185 184 182 171 170 178 188 195 199 203 204 203 213 217 204 198 205 220 205 194 197 203 201 201 206 206 204 204 204 202 202 203 205
344 342 339 338 334 332 333 332 335 335 334 336 333 329 333 337 331 266 242 316 321 320 329 329 323 318 312 279 257 250 214 202 207 182 173 179 190 195 193 185 185 190 190 192 195 184 179 188 189 191 191 186 184 184 184 183 183 181 174 170 171 177 185 193 201 207 212 216 214 207 198 203 216 213 201 202 206 202 202 206 205 202 203 203 201 201 202 205
347 346 345 341 335 334 335 337 338 339 339 338 331 331 337 336 306 239 291 317 320 326 332 331 329 322 298 271 253 248 213 202 205 188 181 182 187 192 193 188 180 178 184 185 184 183 185 188 187 186 187 184 182 180 177 181 186 187 180 175 173 170 178 190 196 205 214 214 208 201 195 203 217 218 201 198 210 212 208 208 206 202 203 202 199 199 202 205
350 349 351 345 338 336 336 338 337 338 340 335 328 334 341 318 275 290 305 309 314 332 336 332 333 327 282 268 247 229 204 196 201 193 188 189 191 194 198 197 185 177 179 177 173 170 178 187 186 185 188 187 184 180 176 180 187 190 185 181 180 171 174 191 191 194 205 203 191 190 192 205 217 219 214 204 211 215 212 208 206 204 203 200 198 200 202 206
352 352 352 346 341 338 337 336 333 336 337 332 333 339 333 274 288 315 317 317 324 333 338 338 337 330 276 265 242 215 194 185 190 191 189 192 197 196 197 198 193 188 174 168 170 169 168 180 187 186 187 188 188 186 181 179 185 190 188 187 190 188 184 190 191 195 195 181 171 183 194 206 209 214 216 210 205 207 209 207 204 204 203 200 199 202 204 206
353 352 350 348 345 341 340 336 333 337 334 333 341 338 303 278 302 319 324 331 337 334 337 345 340 322 285 265 241 201 186 178 180 185 191 196 201 197 195 194 192 187 171 167 171 174 175 184 185 183 187 188 187 188 184 177 183 189 191 198 202 196 191 188 186 194 187 173 173 185 193 199 199 201 197 196 194 195 200 202 202 204 203 202 202 204 207 209
354 353 352 351 350 347 344 338 335 335 331 337 345 320 290 307 320 324 331 338 342 334 334 348 346 320 304 269 228 194 188 172 170 182 194 199 204 199 195 194 189 187 181 173 169 172 177 181 177 178 187 190 187 186 185 182 180 185 193 202 201 192 191 184 127 141 176 179 176 184 190 188 194 203 190 191 193 195 200 201 203 206 205 205 206 207 210 211
355 354 355 355 355 351 344 340 337 332 332 341 344 323 314 328 331 333 340 342 340 334 333 340 348 342 320 273 194 187 189 170 168 181 189 193 207 204 196 193 188 188 187 177 173 173 166 154 170 178 182 188 188 184 187 192 184 183 193 197 189 189 205 191 168 139 174 194 172 181 194 192 190 193 185 189 195 199 204 204 204 208 208 209 211 211 214 216
356 354 356 358 356 352 347 346 343 337 343 349 341 332 327 330 335 337 340 343 337 334 336 333 341 4 10 357 157 174 180 168 173 183 181 187 204 200 192 188 184 186 188 184 184 181 167 146 166 181 180 180 185 184 190 202 197 189 193 191 185 192 199 190 184 171 182 198 173 182 198 201 201 191 179 187 195 198 203 203 203 207 207 209 212 214 217 219
357 356 359 359 355 354 354 352 351 351 355 350 337 336 331 332 342 342 338 343 338 328 337 339 335 6 45 87 141 168 174 170 177 184 182 187 200 195 188 184 179 183 188 190 189 184 182 163 164 179 181 174 181 190 195 198 196 195 199 196 195 201 198 191 189 184 188 197 184 184 196 204 205 195 185 193 196 197 201 202 203 206 206 208 211 213 216 217
360 0 0 359 357 356 352 352 0 4 359 343 337 345 340 335 344 350 340 340 341 326 319 330 332 326 297 147 161 179 187 188 185 187 189 186 183 186 189 184 177 180 185 190 191 184 189 184 162 171 179 178 185 195 196 191 190 194 197 192 192 197 197 192 192 195 197 198 187 176 186 204 203 195 186 192 196 199 203 205 206 207 206 208 211 214 215 218
4 4 359 359 359 355 355 3 9 9 4 353 348 352 347 336 341 355 348 340 349 348 324 313 318 295 247 195 199 196 196 199 193 192 196 189 180 180 186 183 177 177 180 189 197 186 184 179 162 166 176 185 190 192 192 192 192 193 195 190 189 188 184 181 186 198 202 199 192 187 188 196 197 198 194 186 189 199 206 210 210 209 210 210 211 214 216 217
9 7 359 1 3 359 6 16 11 5 6 3 359 358 351 340 344 1 359 345 350 355 350 352 336 288 275 216 227 209 195 193 193 192 190 193 194 185 178 175 174 175 174 183 195 187 182 171 163 168 176 183 187 186 187 193 194 197 203 199 193 192 192 190 179 183 193 195 178 184 182 168 179 197 205 199 197 199 204 211 214 215 216 214 213 215 216 215
10 8 5 8 8 7 14 17 7 8 10 4 5 9 2 349 352 4 7 352 346 348 359 18 32 252 294 259 202 198 199 188 186 192 192 194 199 190 175 169 168 173 174 179 184 181 187 179 161 163 169 173 175 180 187 191 193 199 206 204 200 198 199 201 173 169 186 188 170 174 184 173 177 192 201 204 207 207 203 206 211 215 217 217 218 219 217 215
8 9 10 11 12 13 16 14 7 7 8 7 13 19 15 1 354 358 2 357 349 351 8 27 32 244 249 191 175 180 201 192 184 196 202 194 185 178 173 169 167 172 176 176 173 176 190 182 160 157 161 166 166 174 187 191 194 199 202 202 202 200 199 201 188 175 187 183 181 190 169 161 185 193 191 195 203 204 202 203 206 211 215 217 219 218 215 215
9 11 10 9 14 16 15 14 11 4 2 9 17 19 17 9 352 351 358 358 353 359 15 29 30 41 141 188 191 204 222 214 201 197 188 173 167 168 171 171 166 169 176 169 161 172 187 178 165 162 163 169 174 182 186 187 191 198 199 197 199 196 196 199 196 194 184 156 170 190 131 107 143 194 195 194 195 197 200 205 209 212 215 215 213 211 212 214
10 12 9 8 14 16 12 11 11 4 4 12 15 13 12 8 0 356 2 4 359 2 16 27 28 29 58 181 195 222 252 252 242 211 169 156 162 168 173 172 165 167 176 161 150 159 172 177 177 179 181 182 185 187 185 184 189 195 195 194 196 194 195 200 201 197 182 160 178 203 138 84 94 150 188 199 201 201 202 207 213 217 217 213 207 203 207 211
8 9 9 10 13 12 11 11 8 9 14 15 11 8 6 5 6 5 5 7 4 4 14 23 21 17 10 183 192 250 251 210 218 212 144 147 158 163 170 174 173 172 168 156 152 158 173 181 185 192 197 196 188 184 184 186 190 193 193 193 195 193 196 205 208 199 189 182 171 172 179 49 61 75 170 216 212 210 208 210 215 218 217 211 204 199 202 205
6 6 8 11 11 6 8 11 9 15 23 19 10 5 1 3 8 7 1 10 15 11 7 3 4 12 26 72 15 308 197 183 188 152 122 148 158 159 166 176 182 176 164 158 170 189 200 194 189 195 203 199 189 183 182 185 187 190 192 193 194 194 197 207 212 210 211 209 162 109 122 12 9 350 310 305 219 213 215 217 217 216 212 206 200 198 198 198
3 6 7 10 10 5 7 10 12 18 23 18 10 4 1 4 10 8 353 3 16 17 5 360 358 3 26 57 59 129 163 145 147 151 149 157 159 158 161 173 186 183 175 183 203 206 220 212 196 197 200 194 189 185 180 181 183 187 190 189 191 194 197 206 213 217 225 232 246 298 278 320 358 358 341 328 216 206 212 216 215 211 204 199 196 196 196 197
3 5 7 10 12 10 9 10 15 20 18 12 10 7 5 5 9 14 6 358 2 3 1 4 3 2 31 68 65 121 156 137 137 159 160 153 155 162 166 172 180 182 184 200 213 218 223 216 199 198 196 192 190 182 178 182 184 186 189 187 188 192 195 205 213 217 227 234 241 265 278 290 344 11 15 344 237 198 205 207 208 205 198 194 193 194 196 198
3 4 5 9 14 17 13 10 17 20 11 9 13 10 7 5 5 11 15 7 357 353 357 11 22 31 56 79 78 118 148 151 153 166 164 157 161 171 175 173 173 177 191 211 223 233 231 231 243 213 193 187 187 182 178 182 186 189 191 189 189 191 193 203 212 216 225 231 232 248 268 257 313 11 18 14 115 199 201 196 196 196 193 191 191 192 198 202
2 4 5 7 13 18 16 13 18 18 7 9 16 14 9 8 5 5 9 11 6 354 359 20 34 41 46 53 106 149 157 161 160 166 169 168 169 171 173 174 175 179 194 215 233 241 240 245 238 208 183 173 180 183 176 176 184 197 199 194 190 190 190 200 211 217 224 226 225 239 248 231 259 6 6 0 88 132 166 176 180 182 183 186 189 193 199 202
Height
3091 3090 3089 3088 3088 3087 3086 3085 3085 3084 3083 3083 3082 3081 3081 3080 3080 3079 3079 3079 3078 3078 3078 3077 3077 3077 3077 3078 3078 3078 3079 3079 3080 3080 3080 3082 3083 3083 3086 3090 3093 3095 3098 3101 3105 3107 3109 3112 3114 3117 3120 3122 3125 3127 3129 3132 3136 3138 3139 3138 3135 3136 3139 3143 3147 3148 3150 3154 3156 3156 3156 3158 3163 3165 3164 3164 3165 3167 3167 3167 3168 3170 3171 3172 3172 3172 3172 3172
3090 3089 3088 3087 3086 3085 3084 3084 3083 3082 3081 3081 3080 3079 3079 3078 3077 3077 3076 3076 3076 3075 3075 3075 3075 3075 3075 3076 3075 3075 3076 3076 3076 3075 3076 3079 3079 3079 3081 3084 3087 3091 3093 3097 3100 3103 3104 3107 3109 3112 3115 3117 3119 3122 3123 3126 3129 3131 3133 3131 3128 3132 3137 3141 3145 3146 3148 3151 3153 3155 3155 3156 3160 3164 3162 3162 3164 3164 3165 3165 3166 3167 3169 3169 3170 3170 3170 3171
3088 3087 3086 3085 3084 3083 3082 3081 3081 3080 3079 3078 3078 3077 3076 3075 3075 3074 3074 3073 3073 3073 3072 3072 3072 3072 3073 3073 3073 3072 3072 3073 3072 3072 3072 3075 3075 3075 3077 3079 3082 3086 3089 3092 3095 3097 3100 3102 3104 3108 3111 3112 3114 3117 3118 3121 3123 3125 3128 3125 3124 3131 3135 3138 3141 3143 3145 3148 3151 3154 3154 3154 3156 3161 3160 3159 3162 3163 3163 3164 3164 3165 3167 3167 3168 3169 3169 3169
3087 3086 3085 3084 3083 3082 3081 3080 3079 3078 3077 3076 3075 3075 3074 3073 3072 3072 3071 3071 3070 3070 3070 3069 3069 3069 3069 3070 3070 3070 3070 3069 3068 3068 3070 3071 3071 3071 3072 3074 3077 3081 3084 3087 3089 3092 3095 3097 3100 3104 3107 3107 3109 3112 3113 3114 3117 3120 3121 3119 3124 3130 3132 3135 3137 3140 3142 3144 3148 3151 3153 3152 3153 3157 3158 3157 3159 3161 3162 3163 3163 3164 3165 3165 3166 3167 3168 3168
3086 3085 3084 3083 3082 3081 3079 3078 3077 3076 3075 3074 3074 3073 3072 3071 3070 3070 3069 3069 3068 3067 3067 3066 3066 3066 3066 3067 3067 3067 3067 3067 3064 3065 3067 3068 3068 3068 3069 3070 3073 3076 3079 3082 3084 3087 3090 3093 3097 3100 3101 3103 3105 3106 3107 3110 3113 3115 3115 3116 3124 3127 3127 3131 3133 3135 3138 3141 3145 3148 3150 3150 3151 3152 3153 3155 3155 3158 3160 3160 3160 3162 3163 3163 3164 3166 3166 3167
3085 3084 3083 3081 3080 3079 3077 3076 3075 3074 3073 3072 3072 3071 3070 3069 3068 3067 3066 3066 3065 3065 3064 3063 3063 3062 3063 3063 3064 3064 3065 3065 3063 3061 3063 3065 3065 3065 3066 3067 3069 3072 3074 3076 3079 3082 3085 3089 3092 3094 3096 3099 3100 3101 3104 3108 3109 3111 3111 3114 3120 3121 3124 3127 3128 3131 3134 3138 3141 3145 3148 3148 3148 3147 3148 3150 3152 3156 3157 3155 3157 3159 3160 3161 3162 3164 3165 3166
3084 3083 3081 3080 3078 3077 3076 3074 3073 3073 3072 3071 3070 3069 3068 3067 3066 3065 3064 3063 3062 3061 3060 3060 3059 3059 3059 3059 3060 3060 3062 3063 3061 3058 3058 3060 3061 3062 3063 3064 3066 3068 3069 3071 3073 3076 3080 3083 3086 3090 3093 3095 3096 3098 3102 3105 3105 3107 3109 3112 3115 3115 3119 3123 3124 3126 3130 3135 3138 3142 3144 3143 3143 3145 3145 3145 3149 3153 3151 3151 3155 3156 3158 3159 3161 3162 3163 3164
3082 3081 3080 3078 3077 3076 3074 3073 3072 3071 3071 3070 3069 3068 3067 3066 3065 3064 3063 3062 3061 3060 3058 3057 3055 3055 3055 3055 3055 3056 3057 3059 3057 3054 3055 3056 3057 3058 3059 3061 3062 3064 3065 3066 3068 3072 3074 3077 3081 3086 3089 3091 3093 3096 3099 3101 3101 3102 3106 3110 3111 3110 3115 3119 3121 3123 3126 3132 3136 3137 3138 3138 3140 3143 3142 3141 3146 3147 3146 3149 3152 3153 3155 3157 3159 3160 3161 3162
3081 3080 3078 3077 3075 3074 3073 3072 3071 3070 3069 3068 3067 3066 3065 3064 3063 3062 3061 3060 3060 3058 3057 3056 3054 3052 3051 3051 3051 3050 3052 3054 3052 3050 3050 3052 3053 3053 3055 3057 3059 3060 3061 3062 3064 3067 3070 3073 3078 3082 3085 3088 3090 3092 3094 3097 3098 3098 3103 3107 3106 3106 3112 3116 3117 3120 3123 3128 3131 3132 3133 3135 3137 3137 3136 3139 3142 3141 3143 3147 3148 3150 3153 3154 3156 3157 3158 3160
3079 3078 3077 3075 3074 3072 3071 3070 3069 3068 3067 3066 3065 3064 3063 3062 3061 3060 3059 3057 3056 3055 3054 3053 3052 3051 3049 3048 3047 3045 3048 3050 3048 3045 3045 3047 3048 3049 3050 3052 3055 3056 3057 3058 3060 3062 3066 3069 3073 3077 3079 3082 3085 3088 3090 3093 3095 3095 3099 3103 3103 3105 3109 3112 3114 3117 3120 3123 3125 3128 3130 3132 3132 3131 3133 3137 3137 3137 3141 3144 3145 3148 3150 3152 3154 3154 3156 3157
3078 3076 3075 3073 3072 3070 3069 3068 3067 3066 3065 3064 3063 3062 3061 3060 3058 3057 3056 3054 3053 3051 3050 3049 3048 3047 3046 3046 3044 3043 3044 3045 3043 3041 3041 3042 3044 3045 3046 3048 3050 3052 3053 3054 3056 3058 3061 3064 3067 3070 3074 3077 3080 3084 3086 3089 3092 3092 3096 3100 3100 3103 3106 3108 3111 3114 3117 3119 3120 3124 3128 3128 3127 3124 3128 3135 3133 3134 3140 3141 3143 3145 3147 3149 3151 3152 3154 3154
3076 3075 3073 3072 3070 3068 3067 3066 3065 3064 3063 3062 3061 3059 3058 3057 3056 3054 3053 3052 3050 3048 3047 3045 3043 3042 3041 3040 3040 3041 3041 3039 3038 3037 3037 3038 3040 3040 3042 3044 3046 3048 3049 3050 3053 3055 3057 3060 3063 3067 3071 3073 3078 3081 3082 3084 3088 3089 3093 3097 3098 3101 3102 3103 3107 3110 3113 3116 3117 3123 3124 3121 3121 3119 3124 3131 3130 3132 3137 3139 3140 3142 3144 3146 3148 3150 3151 3152
3074 3073 3071 3069 3068 3066 3065 3063 3062 3061 3060 3059 3058 3057 3055 3054 3053 3051 3050 3049 3048 3046 3044 3041 3039 3037 3035 3033 3034 3036 3035 3035 3034 3033 3032 3034 3035 3037 3038 3040 3042 3044 3046 3047 3049 3051 3053 3056 3059 3064 3066 3070 3076 3077 3076 3080 3084 3086 3090 3095 3097 3097 3097 3098 3102 3106 3110 3113 3115 3120 3117 3113 3116 3117 3120 3127 3127 3129 3134 3136 3138 3140 3142 3144 3145 3147 3149 3150
3072 3071 3069 3067 3065 3064 3062 3061 3060 3058 3057 3056 3055 3054 3052 3051 3050 3049 3047 3046 3044 3042 3040 3038 3035 3033 3030 3028 3029 3030 3030 3030 3030 3029 3029 3029 3030 3033 3034 3036 3038 3040 3041 3043 3045 3048 3050 3052 3056 3060 3062 3066 3071 3071 3074 3079 3081 3085 3089 3091 3093 3092 3091 3094 3098 3101 3106 3109 3112 3115 3111 3109 3116 3117 3117 3121 3124 3127 3131 3133 3135 3137 3139 3141 3143 3145 3147 3148
3070 3069 3067 3065 3063 3061 3060 3058 3057 3055 3054 3053 3052 3050 3049 3048 3046 3045 3044 3042 3041 3038 3037 3034 3032 3030 3026 3023 3024 3025 3025 3025 3025 3025 3024 3024 3026 3028 3030 3031 3033 3035 3038 3040 3041 3044 3047 3049 3053 3056 3059 3064 3065 3068 3074 3077 3077 3082 3084 3084 3087 3088 3089 3092 3093 3097 3102 3105 3108 3110 3107 3108 3115 3116 3114 3116 3120 3124 3128 3130 3132 3134 3137 3139 3141 3143 3144 3145
3068 3067 3065 3063 3061 3059 3057 3055 3053 3052 3051 3050 3048 3047 3045 3044 3042 3041 3039 3038 3037 3035 3033 3030 3029 3027 3022 3020 3021 3020 3020 3020 3021 3021 3020 3020 3021 3024 3025 3027 3030 3032 3034 3036 3038 3041 3044 3047 3050 3054 3058 3061 3062 3067 3073 3074 3075 3077 3077 3078 3081 3084 3088 3089 3089 3093 3099 3102 3103 3104 3105 3107 3112 3114 3112 3111 3116 3121 3124 3127 3129 3132 3135 3137 3139 3140 3141 3143
3067 3065 3063 3061 3059 3057 3055 3052 3050 3049 3048 3047 3045 3044 3042 3040 3038 3036 3035 3034 3033 3032 3029 3026 3025 3023 3019 3018 3018 3017 3016 3016 3017 3017 3016 3016 3017 3019 3021 3023 3027 3029 3031 3034 3035 3038 3041 3044 3047 3051 3054 3057 3060 3066 3068 3066 3067 3068 3072 3075 3077 3081 3084 3086 3086 3090 3096 3099 3100 3101 3104 3107 3109 3111 3109 3108 3113 3118 3121 3124 3126 3129 3132 3134 3136 3137 3139 3141
3065 3063 3061 3059 3057 3054 3052 3050 3047 3045 3045 3043 3042 3040 3038 3036 3034 3032 3031 3030 3029 3028 3025 3023 3022 3019 3017 3015 3013 3013 3013 3013 3014 3014 3013 3013 3014 3016 3017 3019 3023 3026 3028 3030 3032 3035 3038 3041 3045 3048 3050 3052 3055 3058 3057 3056 3059 3062 3066 3070 3074 3078 3081 3083 3084 3086 3091 3095 3098 3099 3101 3104 3106 3107 3106 3106 3110 3114 3117 3121 3123 3127 3129 3131 3133 3135 3137 3139
3063 3061 3059 3057 3054 3052 3050 3047 3045 3043 3041 3040 3038 3037 3035 3033 3031 3028 3026 3026 3026 3025 3022 3019 3017 3016 3016 3013 3011 3010 3009 3010 3011 3011 3011 3011 3012 3013 3014 3017 3020 3022 3025 3027 3029 3031 3036 3039 3041 3042 3042 3043 3046 3049 3052 3055 3059 3061 3064 3068 3072 3074 3077 3081 3082 3084 3088 3092 3094 3095 3097 3100 3103 3104 3104 3104 3107 3111 3114 3117 3120 3123 3126 3128 3130 3133 3135 3137
3060 3058 3056 3054 3052 3050 3047 3044 3042 3040 3038 3037 3035 3034 3032 3030 3028 3024 3020 3019 3021 3022 3020 3018 3013 3010 3010 3010 3009 3006 3004 3006 3007 3008 3009 3009 3010 3011 3013 3015 3017 3020 3021 3024 3026 3029 3034 3036 3034 3034 3035 3040 3044 3048 3054 3056 3057 3060 3063 3066 3070 3072 3074 3078 3081 3082 3085 3088 3089 3091 3095 3096 3099 3101 3102 3102 3104 3107 3111 3114 3116 3119 3122 3125 3128 3131 3133 3135
3058 3056 3054 3052 3050 3047 3045 3042 3040 3037 3035 3034 3032 3031 3029 3028 3026 3023 3018 3014 3015 3017 3014 3013 3010 3006 3005 3005 3005 3002 3000 3002 3004 3005 3006 3006 3008 3010 3011 3012 3015 3017 3018 3022 3026 3028 3031 3030 3029 3031 3036 3041 3044 3047 3053 3055 3056 3059 3061 3064 3067 3070 3073 3076 3080 3080 3082 3086 3087 3090 3093 3093 3095 3099 3100 3100 3101 3104 3107 3110 3112 3116 3120 3123 3126 3129 3130 3132
3056 3054 3052 3050 3047 3045 3042 3039 3037 3035 3033 3032 3030 3029 3027 3026 3024 3021 3016 3009 3008 3012 3009 3006 3004 3002 3001 3001 3000 2999 2997 2998 3000 3001 3003 3004 3006 3008 3009 3011 3012 3015 3017 3021 3024 3026 3027 3025 3027 3032 3036 3040 3043 3046 3051 3053 3055 3057 3059 3062 3064 3067 3071 3074 3077 3079 3080 3084 3086 3088 3090 3091 3093 3096 3098 3097 3098 3101 3104 3107 3110 3114 3117 3120 3123 3126 3127 3128
3054 3051 3049 3047 3045 3042 3039 3037 3034 3032 3031 3030 3028 3027 3025 3023 3021 3018 3015 3006 3003 3006 3004 3000 2999 2998 2997 2997 2996 2995 2994 2996 2997 2998 3000 3001 3003 3005 3008 3009 3010 3014 3016 3018 3019 3021 3021 3021 3026 3032 3035 3038 3041 3043 3048 3051 3053 3055 3057 3059 3060 3064 3068 3070 3074 3077 3079 3081 3084 3086 3088 3089 3090 3093 3095 3095 3096 3099 3102 3104 3108 3111 3113 3117 3120 3122 3123 3125
3052 3049 3046 3044 3041 3039 3037 3034 3032 3030 3029 3028 3026 3024 3022 3021 3018 3016 3012 3005 3000 3000 2999 2997 2996 2995 2995 2994 2993 2992 2992 2993 2994 2995 2996 2998 3001 3003 3005 3006 3008 3011 3013 3015 3017 3018 3019 3022 3026 3031 3033 3036 3039 3041 3044 3048 3050 3052 3054 3056 3058 3061 3064 3068 3071 3075 3078 3080 3082 3085 3086 3086 3086 3088 3091 3092 3093 3096 3099 3101 3104 3107 3110 3113 3116 3118 3120 3123
3049 3046 3043 3040 3038 3036 3034 3032 3030 3028 3027 3025 3023 3022 3020 3018 3016 3013 3010 3004 2998 2997 2997 2996 2995 2993 2992 2992 2991 2991 2991 2991 2991 2993 2993 2995 2999 3002 3004 3005 3006 3008 3011 3013 3016 3017 3019 3022 3025 3028 3030 3033 3036 3038 3040 3045 3049 3051 3052 3054 3057 3060 3063 3067 3069 3072 3075 3076 3077 3081 3081 3079 3081 3084 3086 3088 3089 3092 3095 3097 3100 3103 3106 3109 3111 3115 3119 3121
3047 3044 3041 3038 3035 3033 3031 3030 3028 3026 3025 3023 3022 3020 3018 3016 3014 3011 3008 3003 2999 2997 2996 2995 2994 2992 2990 2990 2990 2990 2989 2989 2989 2990 2991 2993 2997 3001 3003 3004 3003 3006 3009 3012 3014 3016 3018 3021 3023 3025 3028 3031 3034 3036 3038 3043 3047 3048 3050 3053 3056 3059 3062 3065 3067 3069 3070 3071 3074 3077 3076 3074 3077 3080 3081 3083 3086 3089 3092 3094 3097 3099 3102 3105 3109 3113 3116 3118
3045 3042 3039 3036 3032 3030 3028 3028 3026 3024 3023 3021 3020 3018 3016 3015 3012 3009 3007 3002 2997 2996 2995 2994 2993 2991 2989 2989 2989 2989 2989 2988 2988 2988 2990 2992 2995 2998 3001 3002 3002 3004 3007 3010 3012 3013 3015 3018 3020 3023 3027 3029 3031 3033 3036 3041 3045 3046 3048 3051 3055 3057 3061 3064 3066 3067 3067 3070 3072 3074 3075 3073 3071 3073 3076 3080 3082 3085 3088 3090 3093 3096 3099 3103 3107 3110 3113 3115
3043 3040 3037 3034 3031 3028 3026 3025 3024 3022 3021 3019 3017 3016 3014 3012 3010 3008 3008 3003 2996 2994 2994 2992 2990 2989 2988 2987 2987 2988 2988 2987 2987 2987 2988 2991 2994 2996 2998 3000 3002 3003 3005 3008 3009 3010 3013 3015 3017 3021 3025 3027 3029 3031 3034 3039 3044 3046 3047 3050 3054 3057 3060 3063 3065 3066 3067 3069 3067 3069 3073 3071 3067 3068 3072 3075 3078 3080 3083 3087 3090 3093 3097 3100 3103 3107 3110 3112
3041 3037 3034 3032 3029 3027 3024 3023 3022 3021 3020 3018 3016 3014 3012 3011 3009 3007 3008 3004 2995 2993 2992 2990 2988 2987 2986 2985 2985 2985 2986 2986 2987 2986 2987 2990 2993 2995 2996 2998 3001 3003 3004 3006 3008 3009 3012 3014 3017 3021 3023 3025 3028 3031 3034 3037 3042 3045 3047 3050 3054 3057 3060 3062 3063 3064 3066 3065 3061 3063 3068 3067 3064 3065 3068 3069 3071 3075 3080 3084 3088 3091 3095 3098 3101 3104 3107 3110
3039 3035 3032 3030 3027 3025 3023 3022 3020 3019 3018 3016 3015 3012 3010 3008 3007 3006 3005 3000 2994 2992 2990 2988 2987 2985 2984 2984 2983 2983 2984 2985 2986 2986 2987 2990 2992 2993 2995 2997 3000 3002 3003 3005 3007 3009 3011 3014 3018 3020 3022 3024 3028 3031 3034 3036 3041 3045 3047 3049 3054 3057 3059 3061 3061 3062 3062 3059 3057 3060 3063 3064 3062 3061 3063 3065 3066 3072 3077 3080 3084 3088 3092 3095 3098 3102 3105 3107
3037 3034 3031 3028 3026 3024 3023 3021 3020 3018 3017 3015 3013 3011 3008 3007 3006 3005 3002 2996 2992 2991 2989 2987 2985 2984 2983 2983 2982 2982 2982 2984 2985 2986 2987 2989 2991 2992 2994 2996 2998 3000 3002 3004 3006 3008 3010 3013 3016 3018 3021 3024 3027 3030 3033 3036 3040 3044 3045 3047 3051 3054 3058 3060 3060 3060 3056 3053 3054 3057 3060 3063 3059 3056 3060 3062 3065 3070 3073 3076 3080 3085 3089 3092 3096 3099 3102 3104
3035 3032 3029 3027 3025 3023 3022 3020 3019 3017 3016 3014 3012 3009 3007 3006 3004 3002 2999 2994 2992 2990 2987 2986 2984 2983 2982 2981 2981 2981 2981 2983 2984 2985 2987 2988 2990 2991 2992 2993 2994 2996 3000 3001 3004 3007 3009 3011 3014 3017 3020 3022 3024 3027 3031 3035 3038 3041 3042 3043 3045 3048 3053 3055 3053 3053 3050 3049 3051 3054 3057 3059 3056 3056 3059 3060 3063 3067 3070 3074 3079 3083 3086 3090 3093 3096 3099 3102
3034 3031 3029 3026 3024 3023 3022 3020 3018 3017 3015 3013 3011 3008 3007 3006 3003 2999 2997 2994 2992 2989 2987 2984 2982 2981 2981 2980 2980 2980 2981 2982 2983 2985 2987 2988 2989 2990 2991 2992 2993 2994 2996 2998 3002 3006 3008 3010 3013 3015 3017 3020 3022 3023 3025 3028 3031 3034 3036 3037 3037 3039 3044 3047 3044 3045 3047 3047 3049 3052 3055 3054 3053 3056 3058 3059 3061 3064 3068 3073 3078 3081 3085 3088 3091 3094 3096 3099
3033 3030 3028 3026 3024 3022 3021 3019 3017 3016 3014 3012 3010 3007 3006 3005 3001 2997 2995 2994 2991 2988 2986 2983 2981 2980 2980 2979 2979 2979 2980 2982 2983 2985 2986 2988 2989 2989 2990 2992 2993 2994 2995 2997 3001 3003 3005 3007 3009 3012 3014 3017 3020 3021 3023 3025 3029 3032 3034 3035 3034 3033 3037 3040 3039 3040 3043 3044 3049 3052 3052 3051 3051 3053 3055 3058 3061 3063 3067 3072 3076 3080 3084 3086 3089 3091 3094 3097
3033 3030 3028 3025 3023 3022 3019 3018 3016 3014 3013 3011 3008 3007 3005 3003 2999 2996 2994 2992 2989 2987 2985 2983 2981 2979 2979 2979 2979 2979 2980 2981 2982 2984 2986 2987 2987 2988 2990 2990 2991 2994 2995 2996 2999 3002 3004 3005 3007 3011 3014 3016 3018 3021 3024 3027 3029 3032 3035 3035 3034 3033 3036 3037 3037 3038 3039 3042 3047 3049 3048 3049 3050 3050 3053 3057 3060 3063 3066 3070 3073 3077 3080 3083 3086 3089 3092 3095
3032 3029 3027 3025 3022 3020 3018 3017 3015 3013 3012 3010 3007 3006 3004 3001 2998 2996 2993 2990 2989 2986 2984 2983 2981 2980 2980 2979 2979 2979 2980 2980 2982 2984 2985 2987 2987 2988 2989 2990 2991 2993 2994 2994 2996 2999 3002 3004 3006 3011 3013 3015 3018 3021 3023 3024 3026 3030 3032 3032 3032 3034 3036 3037 3037 3038 3040 3042 3044 3046 3047 3048 3049 3050 3052 3055 3059 3061 3064 3066 3070 3073 3076 3080 3083 3087 3090 3093
3031 3028 3026 3024 3022 3020 3018 3016 3014 3013 3011 3009 3007 3005 3002 3000 2997 2995 2992 2990 2988 2986 2984 2982 2981 2980 2980 2979 2979 2979 2980 2981 2982 2984 2985 2986 2987 2987 2988 2990 2991 2992 2993 2995 2996 2997 2999 3002 3006 3009 3012 3015 3018 3021 3023 3024 3025 3028 3029 3030 3033 3036 3036 3036 3037 3039 3040 3040 3041 3043 3044 3045 3047 3048 3050 3053 3057 3059 3061 3064 3068 3070 3074 3078 3081 3085 3088 3091
3031 3028 3026 3024 3022 3020 3018 3015 3014 3012 3010 3008 3006 3004 3001 2999 2996 2994 2991 2989 2987 2985 2984 2983 2981 2980 2979 2979 2979 2979 2980 2981 2982 2983 2984 2985 2985 2986 2988 2989 2991 2992 2993 2995 2997 2997 2999 3001 3006 3009 3011 3014 3018 3020 3022 3023 3024 3027 3029 3031 3033 3034 3034 3034 3034 3037 3038 3037 3038 3041 3043 3043 3044 3045 3047 3051 3054 3056 3060 3063 3066 3068 3071 3075 3079 3082 3085 3088
3032 3028 3026 3024 3022 3020 3018 3015 3013 3011 3009 3008 3006 3004 3001 2998 2996 2993 2991 2988 2986 2984 2983 2982 2981 2980 2979 2979 2979 2980 2980 2981 2982 2983 2983 2984 2985 2985 2987 2989 2990 2992 2994 2995 2996 2997 2999 3000 3004 3008 3011 3014 3017 3018 3018 3019 3023 3026 3028 3030 3032 3032 3031 3031 3032 3033 3034 3034 3036 3039 3041 3041 3042 3044 3046 3048 3052 3055 3058 3061 3064 3066 3070 3073 3076 3079 3082 3085
3032 3029 3026 3025 3022 3020 3018 3016 3013 3011 3010 3008 3006 3004 3001 2997 2994 2992 2990 2988 2986 2984 2983 2982 2981 2980 2979 2979 2979 2980 2981 2981 2982 2983 2983 2983 2984 2985 2987 2988 2989 2992 2994 2996 2997 2997 2999 3000 3001 3006 3011 3012 3012 3013 3014 3017 3020 3023 3024 3026 3028 3030 3029 3029 3030 3031 3030 3031 3033 3037 3039 3039 3040 3044 3045 3047 3050 3054 3056 3059 3062 3066 3069 3072 3074 3077 3081 3084
3033 3030 3028 3025 3023 3020 3018 3015 3013 3011 3010 3008 3006 3003 3000 2996 2993 2992 2990 2988 2985 2984 2982 2981 2981 2980 2979 2979 2979 2979 2980 2981 2982 2982 2983 2983 2983 2984 2985 2987 2989 2991 2993 2995 2996 2997 2999 3000 3000 3003 3007 3009 3010 3012 3015 3018 3019 3021 3022 3023 3026 3028 3028 3028 3029 3031 3030 3029 3031 3034 3036 3036 3039 3042 3045 3047 3050 3053 3055 3058 3061 3065 3068 3070 3073 3077 3080 3082
3033 3031 3028 3026 3023 3020 3017 3015 3014 3012 3010 3008 3006 3002 2999 2996 2993 2991 2990 2988 2985 2984 2982 2981 2980 2980 2979 2979 2979 2979 2980 2981 2981 2981 2982 2982 2982 2983 2984 2986 2989 2991 2993 2995 2996 2996 2998 2999 3000 3002 3005 3008 3010 3013 3016 3018 3020 3022 3023 3024 3026 3027 3028 3026 3027 3030 3031 3031 3031 3033 3034 3034 3037 3041 3044 3047 3050 3052 3054 3057 3060 3063 3065 3068 3072 3075 3077 3080
3033 3031 3028 3025 3023 3020 3017 3016 3015 3013 3011 3008 3006 3002 2998 2995 2993 2991 2990 2989 2986 2984 2982 2981 2980 2980 2980 2980 2979 2979 2980 2980 2981 2981 2981 2981 2982 2983 2984 2986 2989 2992 2993 2995 2996 2997 2998 2998 3000 3002 3005 3008 3011 3014 3017 3018 3020 3021 3022 3023 3024 3026 3027 3026 3026 3029 3031 3031 3032 3033 3034 3034 3035 3039 3041 3043 3047 3050 3052 3055 3057 3060 3062 3066 3069 3072 3075 3077
3033 3031 3028 3025 3023 3020 3018 3017 3015 3012 3010 3008 3005 3002 2999 2996 2993 2991 2989 2989 2987 2984 2983 2982 2981 2980 2980 2980 2979 2979 2980 2980 2980 2980 2980 2981 2982 2983 2984 2986 2989 2992 2993 2995 2996 2997 2998 2999 2999 3001 3004 3007 3010 3013 3015 3016 3017 3018 3019 3021 3023 3025 3028 3028 3028 3030 3030 3030 3031 3031 3032 3034 3035 3037 3039 3041 3044 3047 3050 3053 3054 3057 3060 3063 3066 3069 3072 3075
3033 3030 3028 3026 3023 3020 3019 3017 3014 3011 3009 3006 3004 3001 2999 2997 2994 2992 2990 2989 2988 2986 2984 2983 2982 2981 2981 2981 2980 2979 2979 2978 2978 2979 2980 2981 2982 2983 2985 2987 2990 2992 2993 2995 2996 2997 2999 2999 2999 3000 3000 3003 3004 3004 3005 3008 3012 3015 3017 3020 3022 3024 3027 3028 3030 3030 3029 3030 3032 3029 3029 3033 3035 3037 3038 3041 3043 3046 3048 3050 3052 3055 3057 3060 3063 3067 3070 3072
3033 3031 3029 3026 3023 3021 3020 3017 3015 3013 3009 3006 3003 3001 2999 2997 2994 2992 2990 2989 2988 2987 2985 2984 2983 2982 2981 2981 2980 2979 2978 2978 2978 2978 2978 2980 2982 2983 2985 2988 2991 2993 2994 2995 2996 2997 2998 2999 2999 2999 2999 2999 2999 3000 3003 3007 3010 3012 3015 3018 3021 3023 3026 3028 3029 3029 3029 3031 3032 3030 3030 3034 3037 3038 3039 3041 3042 3044 3046 3049 3051 3053 3055 3058 3061 3065 3068 3070
3034 3032 3030 3027 3024 3023 3022 3019 3017 3014 3010 3007 3004 3002 2999 2997 2994 2992 2991 2989 2988 2987 2986 2984 2983 2982 2982 2981 2981 2980 2979 2978 2978 2977 2978 2981 2983 2984 2987 2990 2992 2993 2995 2995 2996 2997 2998 2999 2999 2999 2999 2999 3000 3003 3006 3008 3010 3012 3014 3017 3020 3023 3026 3027 3027 3029 3029 3030 3030 3032 3033 3036 3037 3039 3039 3040 3041 3043 3045 3047 3049 3052 3054 3057 3060 3063 3066 3068
3035 3033 3030 3027 3025 3024 3022 3020 3017 3014 3011 3008 3006 3003 3001 2998 2995 2993 2991 2990 2988 2987 2986 2984 2983 2982 2981 2981 2981 2980 2979 2979 2979 2978 2979 2981 2983 2985 2988 2991 2993 2994 2994 2996 2998 2998 2999 2999 2999 3000 3000 3000 3001 3004 3006 3008 3011 3013 3015 3017 3020 3023 3025 3026 3027 3028 3029 3029 3029 3032 3034 3036 3037 3038 3038 3039 3040 3041 3043 3046 3048 3050 3053 3055 3058 3061 3064 3067
3036 3034 3031 3028 3026 3024 3021 3019 3016 3013 3011 3009 3007 3005 3001 2998 2996 2994 2992 2990 2989 2988 2986 2984 2983 2982 2981 2981 2981 2980 2979 2979 2980 2980 2981 2982 2984 2986 2988 2991 2993 2994 2995 2997 2998 2998 2999 2998 2998 3000 3001 3001 3002 3004 3006 3008 3010 3013 3015 3017 3020 3023 3025 3026 3027 3028 3029 3029 3030 3032 3034 3036 3037 3037 3037 3038 3039 3040 3042 3044 3046 3049 3051 3054 3057 3060 3063 3065
3036 3034 3031 3029 3026 3023 3021 3019 3017 3014 3012 3011 3009 3005 3002 2999 2997 2995 2993 2991 2989 2987 2986 2984 2983 2982 2981 2980 2981 2980 2980 2979 2980 2980 2981 2982 2985 2987 2988 2989 2991 2993 2995 2997 2998 2998 2998 2998 2998 2999 3000 3001 3003 3004 3005 3008 3010 3013 3015 3018 3020 3023 3025 3026 3027 3028 3028 3029 3031 3033 3034 3036 3036 3036 3037 3037 3038 3039 3040 3042 3044 3047 3050 3053 3056 3059 3061 3064
3036 3033 3031 3028 3026 3024 3022 3020 3018 3015 3014 3012 3009 3005 3002 3000 2998 2995 2994 2992 2990 2987 2986 2984 2982 2981 2981 2981 2981 2981 2980 2980 2981 2981 2982 2983 2984 2986 2988 2989 2991 2993 2995 2996 2997 2997 2997 2997 2998 2998 2998 2999 3002 3004 3005 3008 3011 3013 3014 3016 3019 3021 3024 3025 3025 3026 3027 3029 3032 3034 3035 3035 3036 3036 3037 3037 3038 3039 3039 3040 3043 3045 3048 3052 3055 3058 3060 3062
3036 3034 3031 3029 3026 3024 3023 3021 3019 3017 3016 3013 3010 3006 3003 3001 2998 2996 2994 2992 2990 2988 2986 2985 2983 2982 2982 2982 2981 2981 2981 2981 2981 2982 2983 2984 2986 2988 2989 2991 2992 2993 2994 2996 2997 2997 2997 2997 2997 2997 2996 2997 3001 3004 3006 3008 3011 3011 3011 3013 3017 3020 3023 3025 3025 3025 3026 3028 3032 3034 3034 3035 3036 3036 3036 3037 3038 3038 3039 3040 3042 3045 3048 3051 3054 3056 3059 3061